Location: Eaton
(41.3139°N, 82.0207°W)
Time: 13:12:16
(UTC+00:00)

Meteor 1-27 - Pass Details

Date: 17 June 2021
Orbit: 838 x 892 km, 81.2° (Epoch: 26 July)

Event Time Altitude Azimuth Distance (km) Brightness Sun altitude
Rises 06:38:43 0° 344° (NNW) 3,402 8.2 -23.3°
Reaches altitude 10° 06:41:11 10° 340° (NNW) 2,462 7.3 -23.2°
Maximum altitude 06:46:32 50° 266° (W) 1,059 4.5 -22.8°
Enters shadow 06:47:25 46° 236° (WSW) 1,120 4.4 -22.8°
